Tracking 29892 objects as of 21-Nov-2024
HD Live streaming from Space Station
objects crossing your sky now

STARLINK-30199

Track STARLINK-30199 now!
10-day predictions
STARLINK-30199 is classified as:


NORAD ID: 57299
Int'l Code: 2023-096K
Perigee: 565.8 km
Apogee: 566.6 km
Inclination: 43.0 °
Period: 95.8 minutes
Semi major axis: 6937 km
RCS: Unknown
Launch date: July 10, 2023
Source: United States (US)
Launch site: AIR FORCE EASTERN TEST RANGE (AFETR)
Your satellite tracking list
Your tracking list is empty




NASA's NSSDC Master Catalog

Two Line Element Set (TLE):
1 57299U 23096K   24325.88338220 -.00000106  00000-0  71983-5 0  9993
2 57299  43.0028 277.7811 0000547 310.8282  49.2512 15.02544855 76346
Source of the keplerian elements: AFSPC